Content
SEND FEEDBACK

Daily
Averages
Monthly
Summary
United States of America

PUT IN BAY, OHIO


Home > North America > United States > Ohio
Elevation: 171 meters     Latitude: 41 39N     Longitude: 082 48W

WEATHER
 
SELECT A DAY
Number of Records: 122,469;   Date Range: 12/10/00 - 7/10/14
 
SHARE

PRINT THIS DATA

[ ← Previous Day ]
WEATHER ALMANAC - 7 DECEMBER, 2013
[ Next Day → ]
[ °F ]   °C
Weather ElementAverageHighLow
Temperature-6.2 °C-3.4 °C (3:00 pm)-8.9 °C (7:00 am)
Dewpoint-12.5 °C-9.9 °C (1:00 am)-14.3 °C (3:00 pm)
Humidity60.7 %74 % (2:00 am)36 % (1:00 pm)
Barometer1034.5 hPa1037.3 hPa (8:00 pm)1029.5 hPa (1:00 am)
Wind Speed7.4 km/h13 km/h (10:00 am)
Weather ElementAverage
Wind DirectionNW (310.4 °)

Weather ElementTotal
Precipitation---
Heating Degree Days24.5 (Base 18.3)
Averaged from 27 records on 7 December, 2013
WEATHER CONDITIONS BREAKOUT
WIND DIRECTION BREAKOUT
WEATHER BY HOUR - 7 DECEMBER, 2013
[ °F ]   °C
Local TimeTemperatureDewpointHumidityBarometerVisibilityWind DirectionWind SpeedGust SpeedPrecipitationEventsConditions
1:00 AM-5.6 °C-10 °C61 %1029.5 hPaNW (320°)7.4 km/h
1:00 AM-5.7 °C-9.9 °C73 %1029.5 hPaNW (320°)7.4 km/h
2:00 AM-6.3 °C-10.2 °C74 %1030.1 hPaNW (310°)7.4 km/h
3:00 AM-6.6 °C-11.6 °C68 %1030.8 hPaNW (320°)11.1 km/h
4:00 AM-6.5 °C-11.8 °C67 %1031.5 hPaNNW (330°)9.3 km/h
5:00 AM-7.6 °C-12.5 °C68 %1032.2 hPaNW (320°)7.4 km/h
6:00 AM-8.4 °C-12.8 °C71 %1033.2 hPaNW (320°)3.7 km/h
7:00 AM-8.9 °C-12.8 °C64 %1033.9 hPaWest (270°)3.7 km/h
7:00 AM-8.8 °C-12.7 °C74 %1033.9 hPaWest (270°)3.7 km/h
8:00 AM-8.2 °C-12.2 °C73 %1034.2 hPaWest (280°)7.4 km/h
9:00 AM-6.3 °C-10.5 °C73 %1034.9 hPaWNW (300°)9.3 km/h
10:00 AM-5.7 °C-12.5 °C59 %1035.6 hPaNW (310°)13 km/h
11:00 AM-5.3 °C-13.1 °C55 %1035.9 hPaNW (320°)11.1 km/h
12:00 PM-4.3 °C-13.3 °C50 %1035.6 hPaWNW (290°)13 km/h
1:00 PM-3.9 °C-12.8 °C36 %1035.6 hPaNW (320°)9.3 km/h
1:00 PM-3.7 °C-12.7 °C50 %1035.6 hPaNW (320°)9.3 km/h
2:00 PM-3.5 °C-12.6 °C50 %1035.2 hPaWNW (290°)13 km/h
3:00 PM-3.4 °C-14.3 °C43 %1034.9 hPaWNW (300°)11.1 km/h
4:00 PM-3.4 °C-13.6 °C46 %1035.2 hPaWNW (290°)11.1 km/h
5:00 PM-4.5 °C-13.6 °C50 %1035.6 hPaNW (320°)5.6 km/h
6:00 PM-5.7 °C-13.3 °C56 %1035.9 hPaNW (320°)3.7 km/h
7:00 PM-6.1 °C-13.3 °C44 %1036.6 hPaNW (310°)3.7 km/h
7:00 PM-6.3 °C-13.2 °C59 %1036.6 hPaNW (310°)3.7 km/h
8:00 PM-7.1 °C-13.2 °C62 %1037.3 hPaNW (320°)3.7 km/h
9:00 PM-8.3 °C-13 °C69 %1036.9 hPaNNW (340°)3.7 km/h
10:00 PM-8.1 °C-12.8 °C69 %1036.9 hPaNW (320°)3.7 km/h
11:00 PM-8.9 °C-12.7 °C74 %1036.9 hPaNNW (340°)1.9 km/h
Hourly data recorded from CXHA, located 0 kilometers away from Put In Bay, Ohio







STORIES FROM OUR PARTNERS